TimeCDT,TemperatureF,Dew PointF,Humidity,Sea Level PressureIn,VisibilityMPH,Wind Direction,Wind SpeedMPH,Gust SpeedMPH,PrecipitationIn,Events,Conditions,WindDirDegrees,DateUTC
12:53 AM,37.0,28.9,73,30.25,10.0,WNW,6.9,-,N/A,,Clear,300,2012-10-05 05:53:00
1:53 AM,35.1,28.0,76,30.25,10.0,NW,8.1,-,N/A,,Clear,310,2012-10-05 06:53:00
3:53 AM,34.0,28.0,79,30.24,10.0,WNW,5.8,-,N/A,,Clear,290,2012-10-05 08:53:00
4:53 AM,32.0,26.1,79,30.24,10.0,WNW,4.6,-,N/A,,Clear,300,2012-10-05 09:53:00
5:53 AM,30.0,26.1,85,30.26,10.0,SW,6.9,-,N/A,,Clear,220,2012-10-05 10:53:00
6:53 AM,30.0,25.0,82,30.27,10.0,WSW,5.8,-,N/A,,Clear,250,2012-10-05 11:53:00
7:53 AM,35.1,28.9,78,30.26,10.0,West,5.8,-,N/A,,Clear,260,2012-10-05 12:53:00
8:53 AM,39.0,27.0,62,30.26,10.0,WNW,9.2,-,N/A,,Clear,300,2012-10-05 13:53:00
9:53 AM,41.0,27.0,57,30.27,10.0,WNW,11.5,-,N/A,,Clear,300,2012-10-05 14:53:00
10:53 AM,42.1,26.1,53,30.26,10.0,WNW,12.7,-,N/A,,Partly Cloudy,300,2012-10-05 15:53:00
12:53 PM,46.0,24.1,42,30.25,10.0,West,17.3,-,N/A,,Clear,280,2012-10-05 17:53:00
1:53 PM,45.0,25.0,46,30.24,10.0,West,17.3,26.5,N/A,,Clear,270,2012-10-05 18:53:00
2:53 PM,46.9,24.1,41,30.22,10.0,WNW,19.6,-,N/A,,Clear,290,2012-10-05 19:53:00
3:53 PM,48.0,21.9,36,30.20,10.0,WNW,16.1,-,N/A,,Clear,290,2012-10-05 20:53:00
4:53 PM,48.9,17.1,28,30.19,10.0,WNW,21.9,29.9,N/A,,Clear,300,2012-10-05 21:53:00
5:53 PM,48.9,19.9,32,30.18,10.0,WNW,15.0,-,N/A,,Clear,300,2012-10-05 22:53:00
6:53 PM,44.1,19.9,38,30.19,10.0,WNW,10.4,-,N/A,,Clear,290,2012-10-05 23:53:00
7:53 PM,42.1,19.0,40,30.19,10.0,West,8.1,-,N/A,,Clear,280,2012-10-06 00:53:00
8:53 PM,35.1,19.0,52,30.21,10.0,WNW,6.9,-,N/A,,Clear,290,2012-10-06 01:53:00
9:53 PM,32.0,19.0,59,30.23,9.0,WNW,5.8,-,N/A,,Clear,290,2012-10-06 02:53:00
10:53 PM,30.9,19.0,61,30.22,10.0,NW,8.1,-,N/A,,Clear,310,2012-10-06 03:53:00
11:53 PM,27.0,18.0,69,30.23,10.0,NW,8.1,-,N/A,,Clear,310,2012-10-06 04:53:00